CES5544 ZHCC-ZSSS

Flight info

Callsign CES5544
Flight time 1h 13m
Altitude 37100
Route K0833S1130 RUM9W RUMGU W594 EPGOS W128 FYG B208 HFE R343 PK DCT
Aircraft B38M/M-SDE1FGHILORVWXY/HB1

Departure

Time 2026-04-20 12:37
Airport Zhengzhou Xinzheng International Airport (ZHCC)

Arrival

Time 2026-04-20 13:50
Airport Shanghai Hongqiao International Airport (ZSSS)
Time Latitude Longitude Altitude Speed Heading
2026-04-20 12:19 34.52632 113.85109 507 ft 0 kts 292°
2026-04-20 12:26 34.52631 113.85112 507 ft 2 kts 292°
2026-04-20 12:26 34.52624 113.85132 507 ft 3 kts 292°
2026-04-20 12:26 34.52616 113.85155 507 ft 3 kts 291°
2026-04-20 12:26 34.52609 113.85178 507 ft 3 kts 291°
2026-04-20 12:27 34.52601 113.85201 507 ft 3 kts 292°
2026-04-20 12:27 34.52594 113.85223 507 ft 3 kts 292°
2026-04-20 12:27 34.52586 113.85246 507 ft 3 kts 295°
2026-04-20 12:27 34.52576 113.85268 507 ft 3 kts 305°
2026-04-20 12:28 34.52563 113.85284 507 ft 3 kts 334°
2026-04-20 12:28 34.52553 113.85287 507 ft 1 kts 24°
2026-04-20 12:28 34.52538 113.85279 507 ft 3 kts 21°
2026-04-20 12:28 34.52521 113.85271 507 ft 2 kts 22°
2026-04-20 12:29 34.52518 113.85269 507 ft 1 kts 22°
2026-04-20 12:31 34.52523 113.85272 507 ft 4 kts 22°
2026-04-20 12:31 34.52582 113.85302 507 ft 15 kts 22°
2026-04-20 12:31 34.52701 113.85361 507 ft 20 kts 22°
2026-04-20 12:31 34.52836 113.85429 507 ft 22 kts 22°
2026-04-20 12:32 34.52981 113.85501 507 ft 23 kts 22°
2026-04-20 12:32 34.53135 113.85577 507 ft 24 kts 22°
2026-04-20 12:32 34.53246 113.85586 506 ft 15 kts 306°
2026-04-20 12:32 34.53290 113.85465 506 ft 17 kts 292°
2026-04-20 12:33 34.53336 113.85329 506 ft 18 kts 292°
2026-04-20 12:33 34.53386 113.85180 506 ft 20 kts 294°
2026-04-20 12:33 34.53443 113.85022 506 ft 21 kts 292°
2026-04-20 12:33 34.53497 113.84850 507 ft 22 kts 290°
2026-04-20 12:34 34.53560 113.84674 507 ft 23 kts 294°
2026-04-20 12:34 34.53624 113.84489 507 ft 24 kts 293°
2026-04-20 12:34 34.53688 113.84293 507 ft 26 kts 291°
2026-04-20 12:34 34.53754 113.84100 507 ft 23 kts 294°
2026-04-20 12:35 34.53799 113.84004 507 ft 9 kts 344°
2026-04-20 12:35 34.53864 113.84028 506 ft 11 kts 21°
2026-04-20 12:35 34.53931 113.84076 507 ft 12 kts 58°
2026-04-20 12:35 34.53926 113.84138 506 ft 2 kts 112°
2026-04-20 12:36 34.53921 113.84154 506 ft 1 kts 114°
2026-04-20 12:36 34.53908 113.84190 505 ft 12 kts 112°
2026-04-20 12:36 34.53812 113.84470 504 ft 71 kts 112°
2026-04-20 12:36 34.53531 113.85297 501 ft 139 kts 112°
2026-04-20 12:37 34.53093 113.86547 761 ft 172 kts 112°
2026-04-20 12:37 34.52602 113.87984 1334 ft 197 kts 113°
2026-04-20 12:37 34.52052 113.89555 2196 ft 207 kts 113°
2026-04-20 12:37 34.51445 113.91174 3073 ft 214 kts 116°
2026-04-20 12:38 34.50800 113.92821 3887 ft 223 kts 113°
2026-04-20 12:38 34.50165 113.94571 4757 ft 230 kts 111°
2026-04-20 12:38 34.49546 113.96382 5623 ft 235 kts 110°
2026-04-20 12:38 34.48931 113.98250 6493 ft 241 kts 110°
2026-04-20 12:39 34.47690 114.02116 8119 ft 253 kts 110°
2026-04-20 12:39 34.47043 114.04163 8725 ft 268 kts 110°
2026-04-20 12:39 34.46207 114.06250 9245 ft 285 kts 127°
2026-04-20 12:40 34.44862 114.08043 10069 ft 290 kts 132°
2026-04-20 12:40 34.43499 114.09856 10748 ft 297 kts 132°
2026-04-20 12:40 34.42082 114.11725 11402 ft 307 kts 133°
2026-04-20 12:40 34.40594 114.13672 11839 ft 324 kts 133°
2026-04-20 12:41 34.39007 114.15742 12213 ft 343 kts 134°
2026-04-20 12:41 34.37340 114.17912 12552 ft 361 kts 134°
2026-04-20 12:41 34.35584 114.20196 12846 ft 379 kts 134°
2026-04-20 12:41 34.33748 114.22581 13132 ft 395 kts 134°
2026-04-20 12:42 34.32489 114.24216 13374 ft 403 kts 134°
2026-04-20 12:42 34.30563 114.26714 14006 ft 407 kts 134°
2026-04-20 12:42 34.27981 114.30062 14698 ft 414 kts 135°
2026-04-20 12:42 34.26007 114.32618 15316 ft 417 kts 135°
2026-04-20 12:43 34.24663 114.34358 15688 ft 420 kts 135°
2026-04-20 12:43 34.22620 114.36894 16239 ft 422 kts 142°
2026-04-20 12:43 34.19299 114.39280 16974 ft 420 kts 161°
2026-04-20 12:43 34.17467 114.40184 17322 ft 423 kts 160°
2026-04-20 12:44 34.13850 114.41997 18032 ft 427 kts 161°
2026-04-20 12:44 34.11091 114.43376 18541 ft 431 kts 161°
2026-04-20 12:44 34.09251 114.44295 18826 ft 433 kts 161°
2026-04-20 12:44 34.06450 114.45691 19267 ft 436 kts 161°
2026-04-20 12:45 34.03641 114.47091 19702 ft 439 kts 161°
2026-04-20 12:45 34.00810 114.48500 20136 ft 442 kts 161°
2026-04-20 12:45 33.97956 114.49920 20553 ft 445 kts 161°
2026-04-20 12:45 33.95083 114.51348 20955 ft 448 kts 161°
2026-04-20 12:46 33.92192 114.52785 21360 ft 451 kts 161°
2026-04-20 12:46 33.89279 114.54231 21769 ft 454 kts 162°
2026-04-20 12:46 33.86344 114.55687 22151 ft 458 kts 162°
2026-04-20 12:46 33.83389 114.57151 22540 ft 460 kts 162°
2026-04-20 12:47 33.80417 114.58623 22931 ft 463 kts 162°
2026-04-20 12:47 33.77429 114.60101 23353 ft 465 kts 162°
2026-04-20 12:47 33.74462 114.61569 23701 ft 468 kts 162°
2026-04-20 12:47 33.71440 114.63062 23996 ft 471 kts 162°
2026-04-20 12:48 33.68401 114.64563 24311 ft 474 kts 162°
2026-04-20 12:48 33.65335 114.66044 24612 ft 476 kts 163°
2026-04-20 12:48 33.62243 114.67518 24901 ft 479 kts 163°
2026-04-20 12:48 33.59136 114.69003 25205 ft 481 kts 163°
2026-04-20 12:49 33.56021 114.70491 25505 ft 484 kts 163°
2026-04-20 12:49 33.52882 114.71990 25794 ft 486 kts 163°
2026-04-20 12:49 33.49771 114.73636 26082 ft 495 kts 155°
2026-04-20 12:49 33.46991 114.76131 26391 ft 507 kts 140°
2026-04-20 12:50 33.44603 114.79302 26681 ft 512 kts 135°
2026-04-20 12:50 33.42256 114.82510 27044 ft 512 kts 135°
2026-04-20 12:50 33.39920 114.85734 27482 ft 512 kts 135°
2026-04-20 12:50 33.37624 114.88916 27884 ft 512 kts 135°
2026-04-20 12:51 33.35298 114.92140 28287 ft 512 kts 135°
2026-04-20 12:51 33.32940 114.95406 28702 ft 512 kts 135°
2026-04-20 12:51 33.30636 114.98595 29131 ft 511 kts 135°
2026-04-20 12:51 33.28312 115.01807 29569 ft 511 kts 135°
2026-04-20 12:52 33.25990 115.05016 29986 ft 511 kts 135°
2026-04-20 12:52 33.23665 115.08226 30395 ft 510 kts 135°
2026-04-20 12:52 33.21342 115.11430 30763 ft 510 kts 135°
2026-04-20 12:52 33.19024 115.14623 31140 ft 509 kts 135°
2026-04-20 12:53 33.16707 115.17813 31512 ft 508 kts 135°
2026-04-20 12:53 33.14391 115.20999 31882 ft 508 kts 135°
2026-04-20 12:53 33.12071 115.24187 32255 ft 507 kts 136°
2026-04-20 12:53 33.09759 115.27363 32620 ft 507 kts 136°
2026-04-20 12:54 33.07445 115.30537 32979 ft 506 kts 136°
2026-04-20 12:54 33.05167 115.33660 33348 ft 505 kts 136°
2026-04-20 12:54 33.02865 115.36812 33693 ft 505 kts 136°
2026-04-20 12:54 33.00556 115.39973 34052 ft 504 kts 136°
2026-04-20 12:55 32.98338 115.43219 34356 ft 509 kts 127°
2026-04-20 12:55 32.96730 115.47012 34693 ft 513 kts 114°
2026-04-20 12:55 32.95438 115.50975 34950 ft 514 kts 114°
2026-04-20 12:55 32.94150 115.54948 35193 ft 514 kts 114°
2026-04-20 12:56 32.92881 115.58931 35472 ft 514 kts 114°
2026-04-20 12:56 32.91627 115.62900 35737 ft 513 kts 114°
2026-04-20 12:56 32.90367 115.66891 35998 ft 513 kts 114°
2026-04-20 12:56 32.89100 115.70854 36247 ft 511 kts 118°
2026-04-20 12:57 32.87367 115.74468 36511 ft 497 kts 134°
2026-04-20 12:57 32.85204 115.77639 36765 ft 494 kts 135°
2026-04-20 12:57 32.83030 115.80811 36946 ft 494 kts 136°
2026-04-20 12:57 32.80842 115.83956 37187 ft 493 kts 137°
2026-04-20 12:58 32.78646 115.87082 37298 ft 494 kts 137°
2026-04-20 12:58 32.74224 115.93343 37275 ft 495 kts 137°
2026-04-20 12:59 32.69796 115.99602 37272 ft 495 kts 137°
2026-04-20 12:59 32.65365 116.05853 37267 ft 494 kts 137°
2026-04-20 13:00 32.60933 116.12095 37270 ft 494 kts 137°
2026-04-20 13:00 32.56549 116.18297 37267 ft 494 kts 136°
2026-04-20 13:01 32.52213 116.24630 37265 ft 494 kts 136°
2026-04-20 13:01 32.47864 116.30946 37264 ft 494 kts 136°
2026-04-20 13:02 32.43504 116.37266 37268 ft 494 kts 136°
2026-04-20 13:02 32.39146 116.43573 37267 ft 494 kts 136°
2026-04-20 13:03 32.34814 116.49832 37266 ft 494 kts 136°
2026-04-20 13:03 32.30456 116.56118 37263 ft 495 kts 136°
2026-04-20 13:04 32.26077 116.62424 37265 ft 495 kts 136°
2026-04-20 13:04 32.21704 116.68711 37263 ft 495 kts 136°
2026-04-20 13:05 32.17289 116.74951 37261 ft 495 kts 137°
2026-04-20 13:05 32.15430 116.77538 37262 ft 495 kts 137°
2026-04-20 13:07 32.14656 116.78616 37260 ft 495 kts 137°
2026-04-20 13:08 32.10211 116.84808 37257 ft 494 kts 137°
2026-04-20 13:08 32.05764 116.90995 37256 ft 494 kts 137°
2026-04-20 13:09 32.01320 116.97167 37255 ft 493 kts 137°
2026-04-20 13:09 31.96883 117.03329 37255 ft 493 kts 137°
2026-04-20 13:10 31.92484 117.09438 37245 ft 490 kts 137°
2026-04-20 13:10 31.90255 117.12529 36871 ft 486 kts 137°
2026-04-20 13:10 31.88097 117.15519 36115 ft 488 kts 137°
2026-04-20 13:10 31.85899 117.18563 35385 ft 490 kts 136°
2026-04-20 13:11 31.83684 117.21627 34680 ft 492 kts 136°
2026-04-20 13:11 31.81457 117.24705 33959 ft 494 kts 135°
2026-04-20 13:11 31.79336 117.27890 33172 ft 500 kts 126°
2026-04-20 13:11 31.77818 117.31601 32462 ft 507 kts 109°
2026-04-20 13:12 31.77206 117.35659 32279 ft 502 kts 95°
2026-04-20 13:12 31.76576 117.43933 32240 ft 514 kts 96°
2026-04-20 13:13 31.75980 117.52322 32252 ft 516 kts 96°
2026-04-20 13:13 31.75392 117.60739 32254 ft 517 kts 96°
2026-04-20 13:14 31.74803 117.69088 32251 ft 510 kts 96°
2026-04-20 13:14 31.74212 117.77399 32249 ft 510 kts 96°
2026-04-20 13:15 31.73614 117.85711 32248 ft 510 kts 96°
2026-04-20 13:15 31.73015 117.93976 32245 ft 511 kts 96°
2026-04-20 13:16 31.72406 118.02304 32250 ft 511 kts 96°
2026-04-20 13:16 31.71801 118.10629 32247 ft 511 kts 96°
2026-04-20 13:17 31.71229 118.18948 32245 ft 511 kts 96°
2026-04-20 13:17 31.70646 118.27294 32246 ft 512 kts 96°
2026-04-20 13:18 31.70061 118.35574 32245 ft 512 kts 96°
2026-04-20 13:18 31.69467 118.43916 32246 ft 513 kts 96°
2026-04-20 13:19 31.68866 118.52272 32246 ft 513 kts 96°
2026-04-20 13:19 31.68260 118.60628 32249 ft 513 kts 96°
2026-04-20 13:20 31.67649 118.68979 32255 ft 513 kts 96°
2026-04-20 13:20 31.67031 118.77346 32259 ft 514 kts 96°
2026-04-20 13:21 31.66409 118.85699 32256 ft 514 kts 96°
2026-04-20 13:21 31.65781 118.94057 32257 ft 514 kts 96°
2026-04-20 13:22 31.65152 119.02406 32252 ft 514 kts 95°
2026-04-20 13:22 31.64690 119.10783 32251 ft 514 kts 95°
2026-04-20 13:23 31.64305 119.18992 32260 ft 501 kts 94°
2026-04-20 13:23 31.64121 119.23070 32116 ft 498 kts 94°
2026-04-20 13:23 31.63936 119.27122 31783 ft 495 kts 94°
2026-04-20 13:23 31.63750 119.31144 31215 ft 494 kts 94°
2026-04-20 13:24 31.63563 119.35164 30584 ft 494 kts 94°
2026-04-20 13:24 31.63375 119.39202 29912 ft 494 kts 94°
2026-04-20 13:24 31.63185 119.43241 29215 ft 494 kts 94°
2026-04-20 13:24 31.62996 119.47233 28724 ft 489 kts 94°
2026-04-20 13:25 31.62808 119.51202 28168 ft 485 kts 94°
2026-04-20 13:25 31.62619 119.55133 27597 ft 482 kts 94°
2026-04-20 13:25 31.62429 119.59068 27043 ft 479 kts 94°
2026-04-20 13:25 31.62243 119.62909 26488 ft 477 kts 94°
2026-04-20 13:26 31.62056 119.66777 25908 ft 474 kts 94°
2026-04-20 13:26 31.61883 119.70644 25304 ft 474 kts 94°
2026-04-20 13:26 31.61707 119.74491 24813 ft 470 kts 94°
2026-04-20 13:26 31.61532 119.78301 24281 ft 467 kts 94°
2026-04-20 13:27 31.61356 119.82097 23735 ft 465 kts 94°
2026-04-20 13:27 31.61239 119.84607 23299 ft 463 kts 94°
2026-04-20 13:27 31.61004 119.89635 22528 ft 458 kts 94°
2026-04-20 13:27 31.60829 119.93343 22003 ft 453 kts 94°
2026-04-20 13:28 31.60714 119.95782 21653 ft 450 kts 94°
2026-04-20 13:28 31.60539 119.99439 21128 ft 446 kts 94°
2026-04-20 13:28 31.60310 120.04224 20445 ft 441 kts 94°
2026-04-20 13:28 31.60137 120.07805 19935 ft 438 kts 94°
2026-04-20 13:29 31.60020 120.10206 19589 ft 436 kts 95°
2026-04-20 13:29 31.59849 120.13705 19087 ft 433 kts 95°
2026-04-20 13:29 31.59677 120.17215 18580 ft 430 kts 95°
2026-04-20 13:29 31.59505 120.20705 18032 ft 427 kts 95°
2026-04-20 13:30 31.59334 120.24176 17490 ft 424 kts 94°
2026-04-20 13:30 31.59163 120.27608 16977 ft 420 kts 94°
2026-04-20 13:30 31.58978 120.31007 16514 ft 414 kts 97°
2026-04-20 13:30 31.58269 120.34233 16154 ft 404 kts 112°
2026-04-20 13:31 31.57344 120.37309 15829 ft 396 kts 110°
2026-04-20 13:31 31.56447 120.40340 15482 ft 390 kts 110°
2026-04-20 13:31 31.55562 120.43319 15134 ft 384 kts 110°
2026-04-20 13:31 31.54688 120.46252 14789 ft 378 kts 110°
2026-04-20 13:32 31.53828 120.49137 14457 ft 372 kts 110°
2026-04-20 13:32 31.52978 120.51984 14119 ft 367 kts 110°
2026-04-20 13:32 31.52139 120.54791 13765 ft 362 kts 110°
2026-04-20 13:32 31.51313 120.57549 13414 ft 356 kts 110°
2026-04-20 13:33 31.50499 120.60268 13097 ft 351 kts 110°
2026-04-20 13:33 31.49692 120.62961 12781 ft 349 kts 110°
2026-04-20 13:33 31.48887 120.65647 12465 ft 350 kts 110°
2026-04-20 13:33 31.48090 120.68298 12157 ft 349 kts 110°
2026-04-20 13:34 31.47286 120.70974 11841 ft 347 kts 110°
2026-04-20 13:34 31.46498 120.73596 11547 ft 333 kts 110°
2026-04-20 13:34 31.45744 120.76101 11282 ft 318 kts 110°
2026-04-20 13:34 31.45023 120.78495 11004 ft 306 kts 110°
2026-04-20 13:35 31.44318 120.80833 10711 ft 305 kts 110°
2026-04-20 13:35 31.43612 120.83174 10402 ft 305 kts 109°
2026-04-20 13:35 31.42908 120.85508 10040 ft 303 kts 109°
2026-04-20 13:35 31.42206 120.87831 9705 ft 303 kts 109°
2026-04-20 13:36 31.41504 120.90151 9395 ft 302 kts 109°
2026-04-20 13:36 31.40805 120.92464 9077 ft 299 kts 109°
2026-04-20 13:36 31.40117 120.94734 8820 ft 293 kts 109°
2026-04-20 13:36 31.39449 120.96935 8684 ft 287 kts 109°
2026-04-20 13:37 31.38776 120.99147 8543 ft 292 kts 110°
2026-04-20 13:37 31.38093 121.01395 8381 ft 294 kts 110°
2026-04-20 13:37 31.37407 121.03648 8221 ft 293 kts 110°
2026-04-20 13:37 31.36725 121.05889 8058 ft 292 kts 110°
2026-04-20 13:38 31.36044 121.08124 7889 ft 291 kts 110°
2026-04-20 13:38 31.35364 121.10353 7726 ft 290 kts 110°
2026-04-20 13:38 31.34680 121.12561 7542 ft 289 kts 110°
2026-04-20 13:38 31.33998 121.14761 7375 ft 287 kts 110°
2026-04-20 13:39 31.33316 121.16957 7214 ft 287 kts 110°
2026-04-20 13:39 31.32627 121.19111 7048 ft 285 kts 115°
2026-04-20 13:39 31.31450 121.20924 6851 ft 279 kts 144°
2026-04-20 13:39 31.29735 121.21917 6710 ft 272 kts 171°
2026-04-20 13:40 31.27869 121.22176 6566 ft 270 kts 179°
2026-04-20 13:40 31.25994 121.22333 6402 ft 270 kts 179°
2026-04-20 13:40 31.24120 121.22469 6243 ft 269 kts 180°
2026-04-20 13:40 31.22253 121.22593 6082 ft 268 kts 180°
2026-04-20 13:41 31.20393 121.22709 5960 ft 268 kts 180°
2026-04-20 13:41 31.18523 121.22818 5759 ft 268 kts 180°
2026-04-20 13:41 31.16666 121.22923 5572 ft 267 kts 180°
2026-04-20 13:41 31.14839 121.23025 5400 ft 263 kts 180°
2026-04-20 13:42 31.13034 121.23124 5232 ft 255 kts 180°
2026-04-20 13:42 31.09635 121.23311 4969 ft 234 kts 180°
2026-04-20 13:42 31.08037 121.23400 4792 ft 226 kts 180°
2026-04-20 13:43 31.06493 121.23485 4631 ft 217 kts 180°
2026-04-20 13:43 31.05027 121.23566 4493 ft 204 kts 180°
2026-04-20 13:43 31.03650 121.23646 4355 ft 193 kts 178°
2026-04-20 13:43 31.02413 121.24159 4182 ft 197 kts 143°
2026-04-20 13:44 31.01586 121.25410 4045 ft 196 kts 109°
2026-04-20 13:44 31.01388 121.26963 3980 ft 192 kts 87°
2026-04-20 13:44 31.01407 121.28490 3889 ft 185 kts 85°
2026-04-20 13:44 31.01442 121.29974 3756 ft 181 kts 85°
2026-04-20 13:45 31.01466 121.31417 3615 ft 174 kts 85°
2026-04-20 13:45 31.01730 121.32736 3387 ft 162 kts 55°
2026-04-20 13:45 31.02460 121.33622 3174 ft 143 kts 29°
2026-04-20 13:45 31.03360 121.34008 2993 ft 136 kts
2026-04-20 13:46 31.04286 121.34192 2815 ft 134 kts 10°
2026-04-20 13:46 31.05201 121.34306 2630 ft 134 kts
2026-04-20 13:46 31.06118 121.34328 2454 ft 134 kts
2026-04-20 13:46 31.07053 121.34302 2272 ft 134 kts
2026-04-20 13:47 31.07990 121.34259 2096 ft 134 kts
2026-04-20 13:47 31.08923 121.34211 1914 ft 134 kts
2026-04-20 13:47 31.09856 121.34162 1736 ft 134 kts
2026-04-20 13:47 31.10786 121.34113 1542 ft 134 kts
2026-04-20 13:48 31.11720 121.34062 1363 ft 134 kts
2026-04-20 13:48 31.12652 121.34012 1180 ft 134 kts
2026-04-20 13:48 31.13579 121.33962 1004 ft 133 kts
2026-04-20 13:48 31.14500 121.33913 819 ft 135 kts
2026-04-20 13:49 31.15426 121.33864 633 ft 131 kts
2026-04-20 13:49 31.16330 121.33813 463 ft 130 kts
2026-04-20 13:49 31.17245 121.33764 276 ft 133 kts 353°
2026-04-20 13:49 31.18175 121.33708 104 ft 135 kts 353°
2026-04-20 13:50 31.19096 121.33675 24 ft 123 kts 355°
2026-04-20 13:50 31.19771 121.33629 21 ft 66 kts 358°
2026-04-20 13:50 31.20083 121.33614 20 ft 35 kts 356°
2026-04-20 13:50 31.20313 121.33547 22 ft 25 kts 334°
2026-04-20 13:51 31.20462 121.33446 22 ft 23 kts 327°
2026-04-20 13:51 31.20522 121.33351 22 ft 13 kts 266°
2026-04-20 13:51 31.20512 121.33241 22 ft 14 kts 266°
2026-04-20 13:51 31.20507 121.33138 22 ft 12 kts 265°
2026-04-20 13:52 31.20505 121.33035 22 ft 14 kts 270°
2026-04-20 13:52 31.20491 121.32940 23 ft 7 kts 217°
2026-04-20 13:52 31.20471 121.32936 23 ft 0 kts 178°
2026-04-20 13:53 31.20465 121.32936 25 ft 2 kts 178°
2026-04-20 13:53 31.20437 121.32938 22 ft 6 kts 178°
2026-04-20 13:53 31.20384 121.32940 22 ft 9 kts 178°
2026-04-20 13:53 31.20306 121.32944 22 ft 13 kts 178°
2026-04-20 13:54 31.20201 121.32949 25 ft 17 kts 178°
2026-04-20 13:54 31.20070 121.32958 22 ft 21 kts 176°
2026-04-20 13:54 31.19915 121.32966 24 ft 24 kts 180°
2026-04-20 13:54 31.19766 121.32971 23 ft 16 kts 184°
2026-04-20 13:55 31.19725 121.32859 23 ft 18 kts 268°
2026-04-20 13:55 31.19718 121.32720 21 ft 7 kts 267°
2026-04-20 13:55 31.19696 121.32662 23 ft 9 kts 231°
2026-04-20 13:55 31.19671 121.32586 21 ft 12 kts 265°
2026-04-20 13:56 31.19669 121.32539 22 ft 0 kts 266°